Regional Weather Roundup
Issued by NWS

Home | Current Version | Previous Version | Text Only | Print | Product List | Glossary On
Versions: 1 2 3 4 5 6 7 8 9 10 11 12 13 14 15 16 17 18 19 20 21 22 23 24 25 26 27 28 29 30 31 32 33 34 35 36 37 38 39 40 41 42 43 44 45 46 47 48 49 50
000
ASUS46 KLOX 240412
RWRCA

SOUTHERN CALIFORNIA WEATHER ROUNDUP
NATIONAL WEATHER SERVICE OXNARD CALIFORNIA
900 PM PDT WED JUL 23 2014

NOTE: "FAIR" INDICATES FEW OR NO CLOUDS BELOW 12,000 FEET WITH NO
SIGNIFICANT WEATHER AND/OR OBSTRUCTIONS TO VISIBILITY.

  -  STATIONS PRECEEDED BY AN ASTERISK (*) ARE NOT NWS OR FAA
     STATIONS AND ARE NOT SUBJECT TO NWS AND FAA QUALITY CONTROL.

CAZ041-042-087-240500-
LA AND ORANGE COUNTY COASTAL AREAS


CITY           SKY/WX    TMP DP  RH WIND       PRES   REMARKS
L.A. DOWNTOWN  CLEAR     72  60  66 CALM      29.87S
L.A. AIRPORT   CLEAR     71  60  68 W12       29.88R
LONG BEACH     CLEAR     75  60  59 NW8       29.88S

CITY           SKY/WX    TMP DP  RH WIND       PRES   REMARKS
AVALON           N/A     68 N/A N/A MISG        N/A
FULLERTON      CLEAR     77  58  51 W5        29.88R
*GETTY CENTER    N/A     73  59  60 SW3         N/A
HAWTHORNE      CLEAR     73  61  65 SW7       29.88R
*LOS ALAMITOS  PTCLDY    74  60  60 W9        29.88S
*REDONDO BEACH   N/A     69  62  78 W5        29.88R
SANTA ANA      PTCLDY    78  59  51 W5        29.88S
STA MONICA APT CLEAR     73  61  65 E5        29.88R
*UCLA            N/A     72  59  64 NE1       29.86R

$$

CAZ547-548-048-240500-
LA COUNTY VALLEYS AND INLAND EMPIRE


CITY           SKY/WX    TMP DP  RH WIND       PRES   REMARKS
BURBANK        CLEAR     81  57  43 SE5       29.89R
VAN NUYS       CLEAR     85  54  34 SE3       29.88S

CITY           SKY/WX    TMP DP  RH WIND       PRES   REMARKS
CORONA AIRPORT CLEAR     79  55  43 MISG      29.90R
CHINO          CLEAR     76  55  48 W7        29.91R
MARCH AFB      CLEAR     79  43  28 W8        29.94S
*NORTHRIDGE      N/A     82  50  32 CALM        N/A
ONTARIO        PTCLDY    83  51  33 SW6       29.91R
*PASADENA        N/A    N/A N/A N/A N2          N/A
POMONA         CLEAR     77  54  44 CALM      29.94R
RIVERSIDE      CLEAR     82  45  27 W5        29.90S
SAN BERNARDINO NOT AVBL
*SAN GABRIEL     N/A     77  56  48 CALM      29.84S
*WHITEMAN AP   NOT AVBL
*WOODLAND HILL   N/A     82  52  34 S2          N/A

$$

CAZ054-055-240500-
LA AND SAN BERNARDINO COUNTY MOUNTAINS


CITY           SKY/WX    TMP DP  RH WIND       PRES   REMARKS
*BIG BEAR AIRP CLEAR     64  23  20 CALM      30.33S
*CHILAO          N/A     74  38  26 CALM        N/A
MT WILSON NWS    N/A     73  23  15 SW6         N/A
SANDBERG       CLEAR     71  47  42 N14       30.16R
*WARM SPRINGS    N/A     75  42  30 W14         N/A

$$

CAZ028-029-059-060-099-240500-
ANTELOPE VALLEY AND SURROUNDING AREAS


CITY           SKY/WX    TMP DP  RH WIND       PRES   REMARKS
LANCASTER      CLEAR     79  50  36 W21G26    29.99R
PALMDALE       CLEAR     84  43  23 NW13      30.00R

CITY           SKY/WX    TMP DP  RH WIND       PRES   REMARKS
29 PALMS       PTCLDY    97  28   8 SW15      29.95R HX  91
BARSTOW/DAGGET CLEAR     96  33  11 W16       29.89R HX  91
BISHOP         CLEAR     85  16   7 N13       29.99R
CHINA LAKE     PTCLDY    91  41  17 S20G28    29.88R
EDWARDS AFB    PTCLDY    84  43  23 W13       29.95R
MOJAVE         FAIR      77  52  41 W23G35    29.99R
NEEDLES        CLEAR    105  25   6 W12       29.76S HX  97
VICTORVILLE    CLEAR     88  36  15 W8        30.01R

$$

CAZ039-040-240500-
VENTURA AND SANTA BARBARA COUNTY COAST


CITY           SKY/WX    TMP DP  RH WIND       PRES   REMARKS
CAMARILLO      CLEAR     71  61  70 SW3       29.88S
NWS OXNARD       N/A     69  61  76 CALM      29.88S
OXNARD AIRPORT CLEAR     68  61  78 W5        29.88S
*POINT MUGU    CLEAR     70  61  73 NW5       29.89S
SBA APT/GOLETA CLEAR     73  63  70 S8        29.85R
*SANTA BARBARA   N/A     75  61  62 W2        29.94R
*VENTURA         N/A     73  61  65 CALM      29.90S

$$

CAZ044-045-240500-
VENTURA COUNTY VALLEYS


CITY           SKY/WX    TMP DP  RH WIND       PRES   REMARKS
*SIMI VALLEY     N/A     76  59  55 CALM      29.84R
*OJAI            N/A     76  59  56 CALM      29.81S
*FILLMORE        N/A     75  63  65 CALM      29.79R

$$

CAZ053-240500-
VENTURA COUNTY MOUNTAINS


CITY           SKY/WX    TMP DP  RH WIND       PRES   REMARKS
*ROSE VALLEY     N/A     73  54  49 MISG        N/A

$$

CAZ034-035-036-240500-
CENTRAL COAST AND SANTA YNEZ VALLEY


CITY           SKY/WX    TMP DP  RH WIND       PRES   REMARKS
SAN LUIS OBISP CLOUDY    62  60  93 NW18G24   29.97S
SANTA MARIA    CLEAR     65  60  84 W15       29.98R

CITY           SKY/WX    TMP DP  RH WIND       PRES   REMARKS
*CAL POLY SLO    N/A     64  61  88 W8          N/A
*CAMBRIA         N/A     62  60  93 NE3       29.87R
*LOMPOC          N/A     64  57  77 W12G20    30.00S
*PISMO BEACH     N/A     68  61  78 NE3       29.97R

$$

CAZ037-038-051-240500-
SAN LUIS OBISPO COUNTY INTERIOR AND CUYAMA VALLEY


CITY           SKY/WX    TMP DP  RH WIND       PRES   REMARKS
*CUYAMA          N/A     75  57  53 E1        29.94R
PASO ROBLES    CLEAR     75  54  47 W10       29.99R

$$

CAZ032-033-061-240500-
SOUTHERN DESERTS


CITY           SKY/WX    TMP DP  RH WIND       PRES   REMARKS
BLYTHE         CLEAR    108  39   9 SW9       29.72R HX 102
IMPERIAL       CLEAR     99  49  18 W7        29.69R HX  96
PALM SPRINGS   CLEAR    104  41  11 NW16      29.76R HX  99
THERMAL        CLEAR    103  40  11 NW9       29.68S HX  98

$$

ELSEWHERE ACROSS THE WESTERN UNITED STATES AND MEXICO


CITY           SKY/WX    TMP DP  RH WIND       PRES   REMARKS
DENVER, CO     MOCLDY    77  47  34 S15G23    30.24R
GRAND CANYON,  CLOUDY    74  43  32 CALM      30.31R
HONOLULU, HI   PTSUNNY   84  66  54 NE14G23   30.02R
KAHULUI, MAUI  MOSUNNY   82  66  57 NE23G32   30.00R
LAKE TAHOE, CA CLEAR     64  40  41 S7        30.27R
LAS VEGAS, NV  PTCLDY   102  23   6 SW14      29.82R HX  95
MAMMOTH LAKES, FAIR      66  28  24 NW7       30.29S
MEXICO CITY, M MOCLDY    59  50  72 W10       30.39S
PHOENIX, AZ    MOCLDY   107  56  18 E14       29.81R HX 106
PORTLAND, OR   MOCLDY    63  51  65 SW10      30.13R
RENO, NV       CLEAR     76  36  23 W9        30.14R
SALT LAKE CITY MOCLDY    91  43  18 S20       29.94R
SAN DIEGO, CA  PTCLDY    73  63  70 NW5       29.91S
SAN FRANCISCO, PTCLDY    66  59  78 W15       30.05F
SAN JOSE, CA   PTCLDY    65  58  78 NW10      30.07R
SEATTLE, WA    LGT RAIN  60  54  80 SW7       30.07R
TIJUANA, MEX   CLEAR     70  61  73 W6        29.93S

$$

STATION/POSITION TIME  TEMP    WIND        PRES    VSBY  WAVE
                       AIR SEA DIR/SP/G                  HT/PER
                 (UTC) (F)     (DEG/KT/KT) (MB)    (MI)  (FT/S)
POINT ARGUELLO B NOT AVBL
WEST SANTA BARBA 0400   63 60  320/ 23/ 29 1012.9F         6/ 6
POINT CONCEPTION NOT AVBL
EAST SANTA BARBA 0300   69 66  280/ 21/ 25 1010.8
SANTA MONICA BAY 0400   69 69  280/ 10/ 14 1011.2F         5/ 6


USA.gov is the U.S. government's official web portal to all federal, state and local government web resources and services.